Flag for U.S.A. Weather past 2 weeks in Sacramento, California, U.S.A.

45 °F


Feels Like: 45 °F
Forecast: 37 / 51 °F
Wind: No wind

Location: Sacramento Executive Airport

Current Time: Nov 24, 2015 at 11:04:51 PM

Latest Report: Nov 24, 2015 at 9:53 PM

Visibility: 10 mi

Pressure: 29.88 "Hg

Humidity: 71%

Dew point: 36 °F

Location of SacramentoLocation

Historic Weather in Sacramento — Graph


Sacramento temperature yesterday

Maximum temperature yesterday: 66 °F (at 1:53 PM)
Minimum temperature yesterday: 43 °F (at 6:53 AM)
Average temperature yesterday: 53 °F

Past Weeks' High & Low Weather Summary

High72 °F (Nov 20, 2:53 PM)100% (Nov 12, 2:02 AM)30.44 "Hg (Nov 12, 2:02 AM)
Low36 °F (Nov 12, 6:53 AM)23% (Nov 16, 2:53 PM)29.73 "Hg (Nov 15, 6:53 AM)
Average51 °F74%30.10 "Hg
* Reported Nov 9 8:53 PM — Nov 24 8:53 PM, Sacramento, Weather by CustomWeather, © 2015

Note: Actual official high and low records may vary slightly from our data, if they occured in-between our weather recording intervals... More about our weather records


Sacramento weather history for previous 24 hours

Time TempWeatherWind HumidityBarometerVisibility
8:53 PM
Tue, Nov 24
45 °FClear.9 mph74%29.87 "Hg10 mi
7:53 PM47 °FPassing clouds.No wind66%29.88 "Hg10 mi
6:53 PM48 °FClear.3 mph61%29.87 "Hg10 mi
5:53 PM51 °FClear.6 mph52%29.85 "Hg10 mi
4:53 PM53 °FClear.8 mph45%29.85 "Hg10 mi
3:53 PM57 °FSunny.12 mph39%29.84 "Hg10 mi
2:53 PM58 °FSunny.18 mph39%29.83 "Hg10 mi
1:53 PM57 °FSunny.15 mph49%29.82 "Hg10 mi
12:53 PM56 °FMore clouds than sun.8 mph84%29.81 "Hg10 mi
11:53 AM53 °FLight rain. Fog.10 mph89%29.82 "Hg6 mi
10:53 AM53 °FLight rain. More clouds than sun.12 mph83%29.83 "Hg10 mi
9:53 AM52 °FLight rain. More clouds than sun.12 mph80%29.85 "Hg7 mi
8:53 AM52 °FMostly cloudy.10 mph80%29.86 "Hg10 mi
7:53 AM53 °FOvercast.9 mph77%29.87 "Hg10 mi
6:53 AM51 °FClear.8 mph80%29.86 "Hg10 mi
5:53 AM50 °FPassing clouds.8 mph80%29.88 "Hg10 mi
4:53 AM50 °FOvercast.6 mph83%29.89 "Hg10 mi
3:53 AM50 °FPassing clouds.8 mph86%29.89 "Hg10 mi
2:53 AM51 °FClear.7 mph86%29.91 "Hg10 mi
1:53 AM51 °FClear.12 mph86%29.90 "Hg10 mi
12:53 AM51 °FClear.9 mph86%29.88 "Hg10 mi
11:53 PM
Mon, Nov 23
51 °FClear.9 mph86%29.89 "Hg10 mi
Weather by CustomWeather, © 2015

See weather overviewHow to use our weather pages